Location: Austin
(30.3000°N, 97.7500°W)
Time: 22:53:59
(UTC-05:00)

Cosmos 2100 Rocket - Pass Details

Date: 06 May 2026
Orbit: 956 x 999 km, 82.9° (Epoch: 13 May)

Event Time Altitude Azimuth Distance (km) Brightness Sun altitude
Exits shadow 21:33:13 18° 156° (SSE) 2,149 5.3 -16.6°
Maximum altitude 21:37:29 46° 90° (E) 1,269 4.2 -17.3°
Drops below altitude 10° 21:43:23 10° 19° (NNE) 2,724 6.5 -18.4°
Sets 21:46:00 0° 14° (NNE) 3,681 7.3 -18.9°
